| time (UTC) | temp F | wind direction | speed knots | gust knots | rain 1hr in | rain 24hr in | rain mn in | humidity % | barometer mb |
| 20260502180505 | 65 | 279 | 5.2 | 10.4 | 0.00 | 1.97 | 0.96 | 81 | 1018.4 |
| 20260502180221 | 65 | 279 | 2.6 | 10.4 | 0.00 | 1.97 | 0.96 | 81 | 1018.6 |
| 20260502170505 | 65 | 288 | 0.9 | 7.8 | 0.00 | 1.97 | 0.96 | 81 | 1018.2 |
| 20260502164222 | 66 | 298 | 2.6 | 5.2 | 0.00 | 1.97 | 0.96 | 80 | 1018.3 |
| 20260502164004 | 66 | 293 | 1.7 | 5.2 | 0.00 | 1.97 | 0.96 | 80 | 1018.1 |
| 20260502163723 | 66 | 302 | 2.6 | 5.2 | 0.00 | 1.97 | 0.96 | 79 | 1018.3 |
| 20260502163504 | 66 | 301 | 0.9 | 5.2 | 0.00 | 1.97 | 0.96 | 79 | 1018.3 |
| 20260502163221 | 67 | 316 | 2.6 | 6.1 | 0.00 | 1.97 | 0.96 | 78 | 1018.2 |
| 20260502163005 | 67 | 326 | 1.7 | 6.1 | 0.00 | 1.97 | 0.96 | 77 | 1018.1 |
| 20260502162505 | 68 | 318 | 3.5 | 6.1 | 0.00 | 1.97 | 0.96 | 79 | 1018.1 |
| 20260502162005 | 67 | 311 | 2.6 | 5.2 | 0.00 | 1.97 | 0.96 | 82 | 1017.9 |
| 20260502161722 | 66 | 323 | 0.0 | 5.2 | 0.00 | 1.97 | 0.96 | 81 | 1017.9 |
| 20260502161504 | 66 | 318 | 2.6 | 5.2 | 0.00 | 1.97 | 0.96 | 80 | 1018.0 |
| 20260502161005 | 66 | 295 | 2.6 | 7.8 | 0.00 | 1.97 | 0.96 | 80 | 1018.1 |
| 20260502160721 | 66 | 272 | 2.6 | 7.8 | 0.00 | 1.97 | 0.96 | 79 | 1018.0 |
| 20260502160505 | 66 | 286 | 3.5 | 7.8 | 0.00 | 1.97 | 0.96 | 78 | 1018.0 |
| 20260502160222 | 66 | 284 | 2.6 | 7.8 | 0.00 | 1.97 | 0.96 | 76 | 1017.9 |
| 20260502152221 | 66 | 273 | 0.0 | 4.3 | 0.00 | 1.97 | 0.96 | 86 | 1017.3 |
| 20260502152005 | 66 | 270 | 2.6 | 4.3 | 0.00 | 1.97 | 0.96 | 87 | 1017.4 |
| 20260502151723 | 66 | 268 | 1.7 | 5.2 | 0.00 | 1.97 | 0.96 | 90 | 1017.3 |
| 20260502151504 | 66 | 276 | 2.6 | 5.2 | 0.00 | 1.97 | 0.96 | 91 | 1017.3 |
| 20260502151222 | 66 | 282 | 1.7 | 5.2 | 0.00 | 1.97 | 0.96 | 94 | 1017.2 |
| 20260502151006 | 66 | 286 | 3.5 | 5.2 | 0.00 | 1.97 | 0.96 | 95 | 1017.5 |
| 20260502150721 | 66 | 287 | 2.6 | 5.2 | 0.00 | 1.97 | 0.96 | 98 | 1017.2 |
| 20260502150505 | 66 | 282 | 2.6 | 5.2 | 0.00 | 1.97 | 0.96 | 99 | 1017.4 |
| 20260502150221 | 65 | 273 | 2.6 | 5.2 | 0.00 | 1.97 | 0.96 | 99 | 1017.4 |
| 20260502130505 | 63 | 315 | 2.6 | 6.1 | 0.05 | 1.96 | 0.95 | 99 | 1017.5 |
| 20260502123722 | 63 | 256 | 1.7 | 4.3 | 0.03 | 1.93 | 0.93 | 99 | 1016.8 |
| 20260502123504 | 63 | 263 | 2.6 | 4.3 | 0.02 | 1.92 | 0.92 | 99 | 1016.7 |
| 20260502123120 | 63 | 255 | 2.6 | 4.3 | 0.02 | 1.92 | 0.92 | 99 | 1016.8 |
| 20260502123005 | 63 | 259 | 2.6 | 4.3 | 0.02 | 1.92 | 0.92 | 99 | 1016.8 |
| 20260502122621 | 63 | 256 | 2.6 | 5.2 | 0.01 | 1.91 | 0.90 | 99 | 1016.5 |
| 20260502122504 | 63 | 249 | 2.6 | 5.2 | 0.01 | 1.91 | 0.90 | 99 | 1016.7 |
| 20260502122119 | 62 | 248 | 2.6 | 5.2 | 0.00 | 1.90 | 0.89 | 99 | 1016.6 |
| 20260502122004 | 62 | 246 | 0.9 | 5.2 | 0.00 | 1.90 | 0.89 | 99 | 1016.5 |
| 20260502121619 | 62 | 267 | 2.6 | 4.3 | 0.00 | 1.90 | 0.89 | 99 | 1016.4 |
| 20260502121504 | 62 | 268 | 1.7 | 4.3 | 0.00 | 1.90 | 0.89 | 99 | 1016.3 |
| 20260502121251 | 62 | 265 | 1.7 | 4.3 | 0.00 | 1.90 | 0.89 | 99 | 1016.2 |
| 20260502120750 | 62 | 253 | 2.6 | 4.3 | 0.00 | 1.90 | 0.89 | 99 | 1016.1 |
| 20260502120250 | 62 | 257 | 3.5 | 4.3 | 0.00 | 1.90 | 0.89 | 99 | 1016.2 |
| 20260502115750 | 62 | 251 | 1.7 | 5.2 | 0.00 | 1.90 | 0.89 | 99 | 1016.0 |
| 20260502115251 | 62 | 245 | 1.7 | 5.2 | 0.00 | 1.90 | 0.89 | 99 | 1015.9 |
| 20260502114751 | 62 | 265 | 2.6 | 5.2 | 0.00 | 1.90 | 0.89 | 99 | 1015.7 |
| 20260502114250 | 62 | 294 | 0.9 | 4.3 | 0.00 | 1.90 | 0.89 | 99 | 1015.7 |
| 20260502113750 | 62 | 299 | 0.9 | 2.6 | 0.00 | 1.90 | 0.89 | 99 | 1015.7 |
| 20260502113252 | 62 | 288 | 0.9 | 2.6 | 0.00 | 1.90 | 0.89 | 99 | 1015.4 |
| 20260502112751 | 62 | 286 | 0.0 | 2.6 | 0.00 | 1.90 | 0.89 | 99 | 1015.5 |
| 20260502112251 | 62 | 268 | 1.7 | 2.6 | 0.00 | 1.90 | 0.89 | 99 | 1015.5 |
| 20260502111750 | 62 | 253 | 1.7 | 2.6 | 0.00 | 1.90 | 0.89 | 99 | 1015.4 |
| 20260502111250 | 62 | 255 | 0.0 | 1.7 | 0.00 | 1.90 | 0.89 | 99 | 1015.1 |
| 20260502110751 | 62 | 262 | 0.0 | 1.7 | 0.00 | 1.90 | 0.89 | 99 | 1015.2 |
| 20260502110251 | 62 | 250 | 0.0 | 0.9 | 0.00 | 1.90 | 0.89 | 99 | 1014.9 |
| 20260502105751 | 62 | 230 | 0.0 | 1.7 | 0.00 | 1.90 | 0.89 | 99 | 1014.9 |
| 20260502105250 | 62 | 209 | 0.0 | 2.6 | 0.00 | 1.90 | 0.89 | 99 | 1014.7 |
| 20260502104752 | 62 | 216 | 0.0 | 2.6 | 0.00 | 1.90 | 0.89 | 99 | 1014.6 |
| 20260502104251 | 62 | 224 | 0.9 | 2.6 | 0.00 | 1.90 | 0.89 | 99 | 1014.3 |
| 20260502103751 | 62 | 225 | 0.0 | 0.9 | 0.00 | 1.90 | 0.89 | 99 | 1014.0 |
| 20260502103250 | 61 | 246 | 0.0 | 1.7 | 0.00 | 1.90 | 0.89 | 99 | 1014.0 |
| 20260502102752 | 61 | 272 | 0.0 | 1.7 | 0.00 | 1.90 | 0.89 | 99 | 1014.0 |
| 20260502102251 | 61 | 272 | 0.0 | 1.7 | 0.00 | 1.90 | 0.89 | 99 | 1014.0 |
| 20260502101751 | 61 | 243 | 0.0 | 1.7 | 0.00 | 1.90 | 0.89 | 99 | 1014.0 |
| 20260502101250 | 61 | 251 | 0.0 | 0.9 | 0.00 | 1.90 | 0.89 | 99 | 1013.7 |
| 20260502100750 | 61 | 247 | 0.0 | 0.9 | 0.00 | 1.90 | 0.89 | 99 | 1013.7 |
| 20260502100252 | 61 | 217 | 0.0 | 0.9 | 0.00 | 1.90 | 0.89 | 99 | 1013.7 |
| 20260502091251 | 61 | 238 | 0.0 | 1.7 | 0.00 | 1.90 | 0.89 | 99 | 1013.0 |
| 20260502090751 | 61 | 202 | 0.0 | 1.7 | 0.00 | 1.90 | 0.89 | 99 | 1013.1 |
| 20260502090250 | 61 | 201 | 0.0 | 2.6 | 0.00 | 1.90 | 0.89 | 99 | 1012.9 |
| 20260502071250 | 62 | 248 | 0.0 | 7.8 | 0.07 | 1.90 | 0.89 | 99 | 1012.4 |
| 20260502070752 | 62 | 248 | 2.6 | 9.6 | 0.09 | 1.90 | 0.89 | 99 | 1012.6 |
| 20260502070251 | 62 | 276 | 3.5 | 10.4 | 0.10 | 1.90 | 0.89 | 99 | 1012.7 |
| 20260502065751 | 62 | 334 | 2.6 | 10.4 | 0.11 | 1.90 | 0.89 | 99 | 1012.5 |
| 20260502065250 | 61 | 11 | 5.2 | 7.0 | 0.14 | 1.88 | 0.88 | 99 | 1011.9 |
| 20260502064750 | 61 | 6 | 1.7 | 9.6 | 0.14 | 1.87 | 0.87 | 99 | 1012.9 |
| 20260502064251 | 61 | 329 | 0.9 | 9.6 | 0.16 | 1.87 | 0.87 | 99 | 1012.8 |
| 20260502063751 | 61 | 324 | 2.6 | 9.6 | 0.17 | 1.86 | 0.86 | 99 | 1013.1 |
| 20260502063251 | 61 | 18 | 0.9 | 9.6 | 0.21 | 1.86 | 0.86 | 99 | 1013.0 |
| 20260502062751 | 60 | 326 | 2.6 | 9.6 | 0.22 | 1.86 | 0.86 | 99 | 1013.0 |
| 20260502062251 | 60 | 324 | 3.5 | 9.6 | 0.22 | 1.85 | 0.85 | 99 | 1013.4 |
| 20260502061751 | 60 | 8 | 2.6 | 6.1 | 0.23 | 1.84 | 0.83 | 99 | 1014.1 |
| 20260502061252 | 60 | 333 | 2.6 | 8.7 | 0.23 | 1.83 | 0.82 | 99 | 1014.8 |
| 20260502060752 | 60 | 316 | 4.3 | 8.7 | 0.23 | 1.80 | 0.80 | 99 | 1014.8 |
| 20260502060251 | 60 | 307 | 7.0 | 8.7 | 0.23 | 1.79 | 0.79 | 99 | 1015.1 |
| 20260502055751 | 60 | 339 | 5.2 | 7.8 | 0.23 | 1.77 | 0.76 | 99 | 1015.2 |
| 20260502055250 | 60 | 29 | 1.7 | 7.0 | 0.22 | 1.74 | 0.74 | 99 | 1015.1 |
| 20260502054750 | 60 | 329 | 4.3 | 7.0 | 0.22 | 1.73 | 0.73 | 99 | 1015.1 |
| 20260502054251 | 60 | 262 | 1.7 | 2.6 | 0.21 | 1.71 | 0.70 | 99 | 1015.2 |
| 20260502053751 | 60 | 242 | 0.9 | 2.6 | 0.20 | 1.67 | 0.67 | 99 | 1015.6 |
| 20260502053250 | 60 | 239 | 0.0 | 3.5 | 0.20 | 1.65 | 0.64 | 99 | 1015.7 |
| 20260502052752 | 60 | 212 | 0.9 | 3.5 | 0.21 | 1.64 | 0.63 | 99 | 1015.5 |
| 20260502052251 | 60 | 201 | 0.0 | 3.5 | 0.20 | 1.61 | 0.61 | 99 | 1015.6 |
| 20260502051751 | 60 | 249 | 1.7 | 2.6 | 0.20 | 1.60 | 0.60 | 99 | 1015.4 |
| 20260502051250 | 60 | 250 | 0.0 | 2.6 | 0.18 | 1.58 | 0.57 | 99 | 1015.4 |
| 20260502050750 | 60 | 266 | 0.0 | 2.6 | 0.18 | 1.57 | 0.56 | 99 | 1015.6 |
| 20260502050252 | 60 | 256 | 0.0 | 3.5 | 0.20 | 1.55 | 0.55 | 99 | 1015.2 |
| 20260502045751 | 60 | 200 | 0.9 | 3.5 | 0.23 | 1.53 | 0.53 | 99 | 1015.0 |
| 20260502045251 | 60 | 162 | 2.6 | 3.5 | 0.24 | 1.52 | 0.51 | 99 | 1015.0 |
| 20260502044750 | 60 | 108 | 0.0 | 3.5 | 0.25 | 1.51 | 0.50 | 99 | 1014.9 |
| 20260502044252 | 60 | 84 | 0.9 | 7.0 | 0.28 | 1.49 | 0.49 | 99 | 1014.6 |
| 20260502043751 | 60 | 124 | 1.7 | 7.0 | 0.27 | 1.47 | 0.47 | 99 | 1014.3 |
| 20260502043251 | 60 | 88 | 4.3 | 7.8 | 0.28 | 1.45 | 0.44 | 99 | 1014.6 |
| 20260502042750 | 60 | 61 | 4.3 | 7.8 | 0.28 | 1.42 | 0.42 | 99 | 1014.9 |
| 20260502042252 | 60 | 91 | 5.2 | 7.8 | 0.30 | 1.41 | 0.41 | 99 | 1014.9 |
| 20260502041751 | 60 | 116 | 2.6 | 3.5 | 0.31 | 1.40 | 0.40 | 99 | 1015.3 |
| 20260502041251 | 60 | 47 | 0.0 | 4.3 | 0.31 | 1.39 | 0.38 | 99 | 1015.5 |
| 20260502040750 | 60 | 78 | 0.9 | 4.3 | 0.33 | 1.38 | 0.37 | 99 | 1015.6 |
| 20260502040250 | 60 | 153 | 1.7 | 5.2 | 0.34 | 1.35 | 0.35 | 99 | 1015.5 |
| 20260502035751 | 60 | 151 | 0.9 | 5.2 | 0.30 | 1.29 | 0.29 | 99 | 1016.3 |
| 20260502035251 | 60 | 134 | 4.3 | 5.2 | 0.29 | 1.27 | 0.27 | 99 | 1016.2 |
| 20260502034751 | 60 | 78 | 2.6 | 5.2 | 0.28 | 1.24 | 0.23 | 99 | 1015.6 |
| 20260502034250 | 60 | 91 | 2.6 | 7.0 | 0.27 | 1.21 | 0.21 | 99 | 1015.3 |
| 20260502033752 | 60 | 117 | 3.5 | 7.0 | 0.25 | 1.19 | 0.18 | 99 | 1015.3 |
| 20260502033251 | 60 | 119 | 3.5 | 6.1 | 0.24 | 1.16 | 0.16 | 99 | 1015.2 |
| 20260502032751 | 60 | 124 | 2.6 | 6.1 | 0.23 | 1.14 | 0.14 | 99 | 1015.5 |
| 20260502032250 | 60 | 113 | 0.9 | 2.6 | 0.21 | 1.11 | 0.10 | 99 | 1015.9 |
| 20260502031751 | 60 | 117 | 1.7 | 2.6 | 0.20 | 1.08 | 0.08 | 99 | 1016.0 |
| 20260502031251 | 60 | 103 | 1.7 | 2.6 | 0.20 | 1.07 | 0.07 | 99 | 1016.3 |
| 20260502030751 | 60 | 75 | 0.0 | 2.6 | 0.22 | 1.05 | 0.04 | 99 | 1016.3 |
| 20260502030250 | 60 | 111 | 0.9 | 2.6 | 0.24 | 1.01 | 0.01 | 99 | 1016.3 |
| 20260502025752 | 60 | 79 | 0.0 | 5.2 | 0.25 | 0.99 | 0.99 | 99 | 1016.1 |
| 20260502025251 | 60 | 104 | 0.0 | 5.2 | 0.28 | 0.98 | 0.98 | 99 | 1016.0 |
| 20260502024751 | 60 | 108 | 0.9 | 5.2 | 0.34 | 0.95 | 0.95 | 99 | 1015.7 |
| 20260502024250 | 60 | 91 | 2.6 | 4.3 | 0.57 | 0.94 | 0.94 | 99 | 1015.4 |
| 20260502023752 | 60 | 108 | 0.9 | 5.2 | 0.72 | 0.93 | 0.93 | 99 | 1016.1 |
| 20260502023252 | 60 | 120 | 0.9 | 5.2 | 0.81 | 0.92 | 0.92 | 99 | 1016.1 |
| 20260502022750 | 60 | 115 | 4.3 | 5.2 | 0.81 | 0.90 | 0.90 | 99 | 1015.6 |
| 20260502022252 | 60 | 123 | 2.6 | 7.0 | 0.80 | 0.89 | 0.89 | 99 | 1015.7 |
| 20260502021751 | 60 | 131 | 2.6 | 7.0 | 0.81 | 0.88 | 0.88 | 99 | 1015.3 |
| 20260502021250 | 60 | 110 | 3.5 | 6.1 | 0.80 | 0.87 | 0.87 | 99 | 1016.3 |
| 20260502020750 | 60 | 68 | 2.6 | 5.2 | 0.75 | 0.82 | 0.82 | 99 | 1016.6 |
| 20260502020252 | 60 | 351 | 0.9 | 4.3 | 0.69 | 0.76 | 0.76 | 99 | 1017.4 |
| 20260502015751 | 60 | 62 | 0.9 | 4.3 | 0.64 | 0.72 | 0.72 | 99 | 1017.4 |
| 20260502015251 | 60 | 104 | 2.6 | 4.3 | 0.61 | 0.68 | 0.68 | 99 | 1016.1 |
| 20260502014751 | 60 | 161 | 0.9 | 9.6 | 0.51 | 0.59 | 0.59 | 99 | 1016.9 |
| 20260502014252 | 61 | 248 | 2.6 | 9.6 | 0.30 | 0.36 | 0.36 | 98 | 1017.7 |
| 20260502013751 | 61 | 255 | 5.2 | 10.4 | 0.11 | 0.17 | 0.17 | 97 | 1017.6 |
| 20260502013251 | 61 | 120 | 5.2 | 26.9 | 0.04 | 0.10 | 0.10 | 97 | 1016.9 |
| 20260502012750 | 61 | 109 | 6.1 | 26.9 | 0.03 | 0.09 | 0.09 | 97 | 1014.0 |
| 20260502012250 | 61 | 108 | 17.4 | 26.9 | 0.03 | 0.09 | 0.09 | 97 | 1014.0 |
| 20260502011752 | 62 | 117 | 5.2 | 8.7 | 0.01 | 0.07 | 0.07 | 98 | 1014.4 |
| 20260502011251 | 62 | 77 | 4.3 | 9.6 | 0.01 | 0.07 | 0.07 | 99 | 1014.9 |
| 20260502010751 | 62 | 95 | 3.5 | 11.3 | 0.01 | 0.07 | 0.07 | 99 | 1014.9 |
| 20260502010250 | 62 | 129 | 5.2 | 11.3 | 0.01 | 0.07 | 0.07 | 99 | 1015.2 |
| 20260502005752 | 62 | 101 | 1.7 | 10.4 | 0.01 | 0.07 | 0.07 | 99 | 1015.6 |
| 20260502005251 | 62 | 102 | 3.5 | 10.4 | 0.01 | 0.07 | 0.07 | 99 | 1015.5 |
| 20260502004751 | 62 | 122 | 4.3 | 8.7 | 0.01 | 0.07 | 0.07 | 99 | 1015.3 |
| 20260502004250 | 62 | 113 | 5.2 | 8.7 | 0.00 | 0.05 | 0.05 | 99 | 1015.6 |
| 20260502003752 | 62 | 22 | 2.6 | 11.3 | 0.00 | 0.05 | 0.05 | 99 | 1016.3 |
| 20260502003252 | 62 | 347 | 2.6 | 11.3 | 0.01 | 0.05 | 0.05 | 99 | 1015.9 |
| 20260502002751 | 62 | 6 | 7.8 | 11.3 | 0.01 | 0.05 | 0.05 | 99 | 1015.7 |
| 20260502002251 | 62 | 76 | 2.6 | 7.0 | 0.01 | 0.05 | 0.05 | 99 | 1015.2 |
| 20260502001750 | 62 | 89 | 2.6 | 7.8 | 0.01 | 0.05 | 0.05 | 99 | 1015.3 |
| 20260502001251 | 62 | 83 | 2.6 | 7.8 | 0.01 | 0.05 | 0.05 | 99 | 1015.4 |
| 20260502000751 | 62 | 91 | 2.6 | 5.2 | 0.01 | 0.05 | 0.05 | 99 | 1015.8 |
| 20260502000251 | 62 | 89 | 2.6 | 5.2 | 0.01 | 0.05 | 0.05 | 99 | 1015.7 |
| 20260501235750 | 62 | 101 | 2.6 | 8.7 | 0.01 | 0.05 | 0.05 | 99 | 1015.8 |
| 20260501235252 | 62 | 101 | 2.6 | 8.7 | 0.01 | 0.05 | 0.05 | 99 | 1015.6 |
| 20260501234751 | 62 | 98 | 1.7 | 7.8 | 0.01 | 0.05 | 0.05 | 99 | 1015.5 |
| 20260501234251 | 62 | 113 | 4.3 | 9.6 | 0.01 | 0.05 | 0.05 | 99 | 1015.2 |
| 20260501233752 | 62 | 116 | 4.3 | 9.6 | 0.01 | 0.05 | 0.05 | 99 | 1015.2 |
| 20260501233252 | 62 | 117 | 6.1 | 9.6 | 0.00 | 0.04 | 0.04 | 99 | 1015.4 |
| 20260501232751 | 62 | 117 | 4.3 | 8.7 | 0.00 | 0.04 | 0.04 | 99 | 1015.3 |
| 20260501232251 | 62 | 109 | 3.5 | 8.7 | 0.00 | 0.04 | 0.04 | 99 | 1015.5 |
| 20260501231751 | 62 | 109 | 4.3 | 8.7 | 0.00 | 0.04 | 0.04 | 99 | 1015.5 |
| 20260501231252 | 61 | 103 | 3.5 | 5.2 | 0.00 | 0.04 | 0.04 | 99 | 1015.5 |
| 20260501230751 | 62 | 89 | 4.3 | 5.2 | 0.01 | 0.04 | 0.04 | 99 | 1015.6 |
| 20260501230251 | 62 | 92 | 1.7 | 5.2 | 0.01 | 0.04 | 0.04 | 99 | 1015.7 |
| 20260501225750 | 62 | 64 | 2.6 | 5.2 | 0.01 | 0.04 | 0.04 | 99 | 1016.0 |
| 20260501225252 | 62 | 26 | 1.7 | 5.2 | 0.01 | 0.04 | 0.04 | 99 | 1016.2 |
| 20260501224752 | 62 | 348 | 1.7 | 5.2 | 0.01 | 0.04 | 0.04 | 99 | 1016.2 |
| 20260501224251 | 62 | 346 | 2.6 | 7.8 | 0.01 | 0.04 | 0.04 | 99 | 1016.9 |
| 20260501223751 | 62 | 10 | 1.7 | 7.8 | 0.01 | 0.04 | 0.04 | 99 | 1016.4 |
| 20260501223250 | 62 | 49 | 5.2 | 7.8 | 0.02 | 0.04 | 0.04 | 99 | 1015.5 |
| 20260501222752 | 62 | 76 | 3.5 | 11.3 | 0.02 | 0.04 | 0.04 | 99 | 1015.6 |
| 20260501222251 | 62 | 59 | 6.1 | 11.3 | 0.02 | 0.04 | 0.04 | 99 | 1015.5 |
| 20260501221751 | 62 | 74 | 4.3 | 10.4 | 0.02 | 0.04 | 0.04 | 99 | 1015.5 |
| 20260501221250 | 62 | 101 | 4.3 | 7.0 | 0.02 | 0.04 | 0.04 | 99 | 1015.6 |
| 20260501220752 | 62 | 80 | 2.6 | 7.0 | 0.01 | 0.03 | 0.03 | 99 | 1015.6 |
| 20260501220252 | 62 | 84 | 2.6 | 5.2 | 0.01 | 0.03 | 0.03 | 99 | 1015.8 |
| 20260501215751 | 62 | 90 | 2.6 | 3.5 | 0.01 | 0.03 | 0.03 | 99 | 1015.9 |
| 20260501215251 | 62 | 67 | 1.7 | 2.6 | 0.01 | 0.03 | 0.03 | 99 | 1016.3 |
| 20260501214750 | 62 | 40 | 0.0 | 5.2 | 0.01 | 0.03 | 0.03 | 99 | 1016.3 |
| 20260501214251 | 62 | 321 | 2.6 | 12.2 | 0.01 | 0.03 | 0.03 | 99 | 1016.4 |
| 20260501213751 | 62 | 332 | 2.6 | 12.2 | 0.01 | 0.03 | 0.03 | 99 | 1016.9 |
| 20260501213251 | 62 | 93 | 2.6 | 12.2 | 0.00 | 0.02 | 0.02 | 99 | 1016.3 |
| 20260501212750 | 62 | 96 | 2.6 | 12.2 | 0.01 | 0.02 | 0.02 | 99 | 1014.7 |
| 20260501212252 | 62 | 73 | 6.1 | 9.6 | 0.02 | 0.02 | 0.02 | 99 | 1014.7 |
| 20260501211750 | 62 | 76 | 5.2 | 9.6 | 0.02 | 0.02 | 0.02 | 98 | 1014.7 |
| 20260501211252 | 62 | 85 | 4.3 | 8.7 | 0.02 | 0.02 | 0.02 | 97 | 1014.8 |
| 20260501210751 | 62 | 63 | 4.3 | 9.6 | 0.02 | 0.02 | 0.02 | 97 | 1014.7 |
| 20260501210251 | 63 | 45 | 2.6 | 10.4 | 0.02 | 0.02 | 0.02 | 96 | 1014.6 |
| 20260501205750 | 63 | 54 | 4.3 | 10.4 | 0.02 | 0.02 | 0.02 | 95 | 1015.0 |
| 20260501205252 | 63 | 95 | 4.3 | 7.0 | 0.02 | 0.02 | 0.02 | 94 | 1015.1 |
| 20260501204752 | 64 | 106 | 4.3 | 7.0 | 0.02 | 0.02 | 0.02 | 91 | 1015.0 |
| 20260501204251 | 64 | 75 | 2.6 | 5.2 | 0.02 | 0.02 | 0.02 | 89 | 1015.2 |
| 20260501203751 | 65 | 59 | 2.6 | 5.2 | 0.02 | 0.02 | 0.02 | 87 | 1015.1 |
| 20260501203250 | 66 | 41 | 2.6 | 5.2 | 0.02 | 0.02 | 0.02 | 86 | 1015.3 |
| 20260501202752 | 66 | 339 | 0.9 | 4.3 | 0.01 | 0.01 | 0.01 | 83 | 1015.6 |
| 20260501202251 | 67 | 319 | 0.0 | 5.2 | 0.00 | 0.00 | 0.00 | 81 | 1015.6 |
| 20260501201751 | 67 | 19 | 2.6 | 7.0 | 0.00 | 0.00 | 0.00 | 80 | 1015.0 |
| 20260501201250 | 68 | 82 | 2.6 | 7.0 | 0.00 | 0.00 | 0.00 | 78 | 1014.6 |
| 20260501200752 | 70 | 115 | 2.6 | 5.2 | 0.00 | 0.00 | 0.00 | 76 | 1014.5 |
| 20260501200251 | 71 | 64 | 1.7 | 5.2 | 0.00 | 0.00 | 0.00 | 73 | 1014.5 |
| 20260501195751 | 72 | 57 | 0.0 | 4.3 | 0.00 | 0.00 | 0.00 | 71 | 1014.4 |
| 20260501195251 | 73 | 18 | 0.0 | 5.2 | 0.00 | 0.00 | 0.00 | 66 | 1014.3 |
| 20260501194750 | 74 | 342 | 2.6 | 5.2 | 0.00 | 0.00 | 0.00 | 64 | 1014.5 |
| 20260501194251 | 74 | 262 | 0.0 | 4.3 | 0.00 | 0.00 | 0.00 | 61 | 1014.3 |
| 20260501193751 | 74 | 246 | 2.6 | 6.1 | 0.00 | 0.00 | 0.00 | 62 | 1014.1 |
| 20260501193251 | 75 | 244 | 2.6 | 6.1 | 0.00 | 0.00 | 0.00 | 61 | 1013.9 |
| 20260501192750 | 75 | 253 | 4.3 | 6.1 | 0.00 | 0.00 | 0.00 | 61 | 1014.0 |
| 20260501192252 | 75 | 290 | 2.6 | 5.2 | 0.00 | 0.00 | 0.00 | 60 | 1013.3 |
| 20260501191751 | 75 | 309 | 1.7 | 5.2 | 0.00 | 0.00 | 0.00 | 60 | 1012.9 |
| 20260501191251 | 76 | 319 | 4.3 | 5.2 | 0.00 | 0.00 | 0.00 | 59 | 1012.9 |
| 20260501190752 | 76 | 332 | 1.7 | 5.2 | 0.00 | 0.00 | 0.00 | 59 | 1012.9 |
| 20260501190252 | 76 | 326 | 2.6 | 7.8 | 0.00 | 0.00 | 0.00 | 58 | 1012.9 |
| 20260501185751 | 76 | 308 | 4.3 | 7.8 | 0.00 | 0.00 | 0.00 | 57 | 1012.9 |
| 20260501185251 | 76 | 308 | 0.9 | 6.1 | 0.00 | 0.00 | 0.00 | 58 | 1012.8 |
| 20260501184750 | 76 | 319 | 2.6 | 7.8 | 0.00 | 0.00 | 0.00 | 57 | 1012.9 |
| 20260501184252 | 76 | 305 | 0.9 | 7.8 | 0.00 | 0.00 | 0.00 | 57 | 1013.1 |
| 20260501183751 | 77 | 285 | 2.6 | 4.3 | 0.00 | 0.00 | 0.00 | 56 | 1013.1 |
| 20260501183251 | 77 | 107 | 2.6 | 8.7 | 0.00 | 0.00 | 0.00 | 55 | 1012.9 |
| 20260501182750 | 77 | 117 | 2.6 | 8.7 | 0.00 | 0.00 | 0.00 | 55 | 1012.7 |
| 20260501182252 | 77 | 318 | 2.6 | 7.8 | 0.00 | 0.00 | 0.00 | 55 | 1012.9 |
| 20260501181751 | 77 | 329 | 2.6 | 7.8 | 0.00 | 0.00 | 0.00 | 54 | 1013.0 |
| 20260501181251 | 78 | 341 | 3.5 | 7.0 | 0.00 | 0.00 | 0.00 | 55 | 1013.2 |
| 20260501180750 | 78 | 332 | 2.6 | 7.0 | 0.00 | 0.00 | 0.00 | 56 | 1013.4 |